Location: Gazon
(48.1318°N, 1.2708°W)
Time: 23:02:57
(UTC+00:00)

Cosmos 2278 Rocket - Pass Details

Date: 18 September 2020
Orbit: 841 x 845 km, 71.0° (Epoch: 25 October)

Event Time Altitude Azimuth Distance (km) Brightness Sun altitude
Exits shadow 23:04:10 26° 353° (N) 1,609 4.1 -39.1°
Drops below altitude 10° 23:07:02 10° 16° (NNE) 2,471 5.1 -39.2°
Sets 23:09:42 0° 25° (NNE) 3,409 5.9 -39.3°
